SCP
0 0 0 0 0 0 0 0 0 0 0 0 0 0 0 0 0 0 0 0 0 0 0 0 0 0 0 0 0 0 0 0 0 0 0 0 0 0
0 0 0 0 0 0 0 0 0 0 0 0 0 0 0 0 0 0 0 0 0 0 0 0 0 0 0 0 0 0 0 0 0 0 0 0 0 0
0 0 0 0 0 0 0 0 0 0 0 0 0 0 0 0 0 0 0 0 0 0 0 0 0 0 0 0 0 0 0 0 0 0 0 0 0 0
0 0 0 0 0 0 0 0 0 0 0 0 0 0 0 0 0 0 0 0 0 0 0 0 0 0 0 0 0 0 0 0 0 0 0 0 0 0
0 0 0 0 0 0 0 0 0 0 0 0 0 0 0 0 0 0 0 0 0 0 0 0 0 0 0 0 0 0 0 0 0 0 0 0 0 0
0 0 0 0 0 0 0 0 0 0 0 0 0 0 0 0 0 0 0 0 0 0 0 0 0 0 0 0 0 0 0 0 0 0 0 0 0 0
0 0 0 0 0 0 0 0 0 0 0 0 0 0 0 0 0 0 0 0 0 0 0 0 0 0 0 0 0 0 0 0 0 0 0 0 0 0
0 0 0 0 0 0 0 0 0 0 0 0 0 0 0 0 0 0 0 0 0 0 0 0 0 0 0 0 0 0 0 0 0 0 0 0 0 0
0 0 0 0 0 0 0 0 0 0 0 0 0 0 0 0 0 0 0 0 0 0 0 0 0 0 0 0 0 0 0 0 0 0 0 0 0 0
0 0 0 0 0 0 0 0 0 0 0 0 0 0 0 0 0 0 0 0 0 0 0 0 0 0 0 0 0 0 0 0 0 0 0 0 0 0
0 0 0 0 0 0 0 0 0 0 0 0 0 0 0 0 0 0 0 0 0 0 0 0 0 0 0 0 0 0 0 0 0 0 0 0 0 0
0 0 0 0 0 0 0 0 0 0 0 0 0 0 0 0 0 0 0 0 0 0 0 0 0 0 0 0 0 0 0 0 0 0 0 0 0 0
0 0 0 0 0 0 0 0 0 0 0 0 0 0 0 0 0 0 0 0 0 0 0 0 0 0 0 0 0 0 0 0 0 0 0 0 0 0
0 0 0 0 0 0 0 0 0 0 0 0 0 0 0 0 0 0 0 0 0 0 0 0 0 0 0 0 0 0 0 0 0 0 0 0 0 0
0 0 0 0 0 0 0 0 0 0 0 0 0 0 0 0 0 0 0 0 0 0 0 0 0 0 0 0 0 0 0 0 0 0 0 0 0 0
0 0 0 0 0 0 0 0 0 0 0 0 0 0 0 0 0 0 0 0 0 0 0 0 0 0 0 0 0 0 0 0 0 0 0 0 0 0
0 0 0 0 0 0 0 0 0 0 0 0 0 0 0 0 0 0 0 0 0 0 0 0 0 0 0 0 0 0 0 0 0 0 0 0 0 0
0 0 0 0 0 0 0 0 0 0 0 0 0 0 0 0 0 0 0 0 0 0 0 0 0 0 0 0 0 0 0 0 0 0 0 0 0 0
0 0 0 0 0 0 0 0 0 0 0 0 0 0 0 0 0 0 0 0 0 0 0 0 0 0 0 0 0 0 0 0 0 0 0 0 0 0
0 0 0 0 0 -0 -0 0 0 0 0 0 0 0 0 0 0 0 0 0 0 0 0 0 0 0 0 0 0 0 0 0 0 0 0 0 0 0
0 -0 -0 -0 -0 0 0 0 0 0 0 0 0 0 0 0 0 0 0 0 0 0 0 0 0 0 0 0 0 0 0 0 0 0 0 0 0 0
0 0 0 0 0 0 0 0 0 0 0 0 0 0 0 0 0 0 0 0 0 0 0 0 0 0 0 0 0 0 0 0 0 0 0 0 0 0
0 0 0 0 0 0 0 0 0 0 0 0 0 0 0 0 0 0 0 0 0 0 0 0 0 0 0 0 0 0 0 0 0 0 0 0 0 0
Wind_Speed
2 2 1 0 0 1 2 4 5 4 3 3 2 2 3 4 6 4 5 9 11 11 10 9 9 9 9 9 8 8 7 6 6 5 4 3 2 2
2 2 2 1 1 1 2 1 2 3 3 3 2 4 4 5 6 5 6 11 10 10 10 9 8 8 8 8 7 6 5 5 4 3 2 1 1 1
3 3 2 2 1 1 1 2 3 4 5 4 3 4 4 5 5 3 4 5 6 9 9 9 8 7 7 7 6 5 4 4 3 2 1 0 1 2
4 4 4 3 3 2 2 2 3 4 6 7 5 4 4 5 4 4 4 5 5 9 9 9 8 8 7 6 5 5 4 3 3 2 2 2 3 3
4 4 4 4 4 3 4 4 4 5 5 6 6 4 4 4 4 3 4 3 5 8 9 8 8 8 7 7 6 6 5 4 4 4 4 4 4 4
5 5 5 5 5 4 5 5 5 6 5 6 6 5 4 3 3 2 2 2 3 6 7 7 8 9 9 8 8 8 7 7 6 6 5 5 5 5
5 6 6 8 8 6 5 4 5 5 5 5 6 5 4 3 3 2 3 3 2 3 4 4 5 4 6 8 9 10 9 9 8 8 7 7 7 7
5 5 7 9 10 10 11 10 7 6 5 4 4 5 4 3 2 2 2 2 2 2 3 3 4 5 5 5 10 12 12 11 10 9 9 8 8 8
6 5 6 8 8 6 9 10 9 8 6 4 5 4 4 3 2 2 2 2 2 2 2 2 2 3 4 6 13 14 13 12 11 10 10 9 9 9
6 6 7 7 7 5 6 7 7 6 5 5 5 4 4 2 1 2 1 2 1 1 3 1 2 2 3 3 11 13 13 12 12 11 11 10 10 10
7 8 7 7 9 8 5 6 6 5 7 8 7 5 5 4 2 1 1 1 1 1 1 1 1 1 1 3 7 13 13 12 12 12 11 11 11 9
4 7 10 8 8 8 5 5 6 4 4 4 3 2 3 2 1 0 1 1 0 1 1 0 0 0 1 1 2 5 7 10 13 13 13 12 11 5
4 5 5 8 9 9 6 4 3 2 1 2 2 2 2 1 1 1 1 1 1 1 0 1 1 1 1 1 1 3 5 5 5 7 12 14 13 9
4 4 4 6 7 6 4 4 4 3 0 1 2 2 2 1 1 1 1 1 1 1 1 0 1 1 1 2 2 2 3 4 4 5 5 8 12 14
3 3 2 3 3 2 2 4 4 2 1 2 2 1 1 1 0 0 1 1 2 3 3 3 2 2 1 2 2 2 2 3 3 3 3 4 5 5
1 1 1 3 2 2 2 1 1 1 1 1 1 1 0 1 1 1 1 1 1 2 3 3 3 3 2 3 3 3 3 3 3 3 2 3 4 4
4 2 2 2 1 1 1 1 1 1 1 1 1 0 1 1 1 1 1 1 1 1 1 2 3 4 5 4 3 4 4 3 3 2 2 3 4 4
4 3 1 1 0 1 0 0 1 1 1 1 0 1 1 1 1 1 1 1 1 2 2 2 2 2 3 4 5 4 3 3 2 2 3 3 4 4
3 3 0 1 0 0 0 1 1 1 0 1 1 1 1 1 1 2 1 1 1 2 2 2 2 2 2 3 4 4 3 3 3 3 3 3 4 4
3 2 1 1 0 1 1 1 1 0 0 1 1 1 1 2 2 2 1 1 2 3 3 3 2 1 2 3 3 4 7 5 4 4 4 3 4 5
1 1 0 0 1 1 0 0 0 1 0 1 1 1 2 2 2 2 1 1 3 3 4 3 3 4 3 3 4 5 5 9 9 5 4 3 4 4
1 1 1 1 0 1 1 1 1 1 1 2 1 1 2 2 3 3 3 3 3 3 3 3 3 3 3 4 5 6 5 4 8 12 11 9 4 4
0 0 1 2 2 2 1 0 0 1 1 1 1 1 2 2 2 3 3 4 3 4 4 4 3 3 4 4 5 5 6 5 4 4 6 12 17 17
Wind_Direction
355 349 338 316 236 180 156 160 154 157 151 150 145 133 115 106 128 126 127 136 133 130 127 126 123 121 119 114 110 109 108 106 102 96 92 83 66 51
21 25 20 9 32 118 140 140 132 133 130 134 137 134 128 131 137 128 132 141 142 142 140 137 134 132 130 127 126 127 128 129 127 118 104 92 72 11
28 37 37 44 48 56 92 106 106 107 117 114 109 125 124 126 129 132 136 146 152 157 154 152 150 151 149 148 148 152 156 153 149 147 129 37 312 293
30 36 36 48 54 62 79 102 113 114 128 131 130 132 130 134 140 152 156 165 156 164 165 164 165 166 167 169 172 177 176 179 186 204 231 256 269 280
39 41 42 55 57 59 70 82 99 105 112 127 132 130 131 144 148 166 165 155 166 160 169 175 179 180 184 189 193 197 200 205 215 228 241 254 264 272
50 55 53 60 62 66 75 81 95 104 114 121 126 132 133 148 148 165 163 175 165 160 165 172 186 193 197 200 204 209 213 218 223 230 239 251 261 269
53 64 70 73 73 72 81 89 99 107 114 122 126 130 137 149 161 182 160 161 164 152 156 176 177 188 202 210 216 220 221 223 225 229 236 245 253 259
56 64 80 77 77 78 82 82 90 103 108 115 124 132 133 135 149 163 147 145 151 168 162 189 177 189 198 197 207 212 218 222 224 228 236 243 250 255
49 51 63 66 64 73 83 82 78 79 93 105 110 117 119 127 137 132 125 132 147 175 164 202 198 198 205 199 196 204 211 217 223 229 236 242 247 252
57 60 68 60 43 48 81 84 83 72 78 86 91 102 107 102 92 121 146 139 166 178 159 193 214 212 196 171 195 201 209 216 223 229 236 241 247 251
57 52 54 61 37 41 72 83 85 84 80 86 92 99 98 91 72 56 63 108 139 190 164 173 214 206 186 188 199 206 213 219 226 232 236 241 246 253
76 73 56 50 43 45 60 72 76 70 89 103 103 122 139 138 149 75 37 46 90 129 148 85 337 16 288 223 190 194 220 232 234 238 239 242 243 243
67 70 54 40 41 39 49 66 72 31 63 124 133 141 144 156 187 191 137 78 66 45 82 63 358 334 295 280 253 213 205 213 220 235 237 239 238 225
55 63 59 39 33 25 33 28 12 352 258 136 114 125 135 134 137 126 125 141 170 198 222 186 245 261 286 286 275 258 238 224 215 214 217 225 234 235
45 45 40 19 4 360 0 342 337 334 44 76 86 88 100 121 140 188 228 226 245 243 219 204 217 251 256 257 267 264 264 261 242 228 221 212 216 217
26 347 300 300 299 313 310 289 290 42 53 57 70 60 92 175 214 212 210 235 247 261 234 211 216 228 253 262 256 262 253 248 251 249 242 245 242 226
340 298 249 229 214 203 190 179 147 126 80 55 66 282 255 252 253 230 226 248 253 257 255 233 230 227 231 236 255 260 257 258 247 242 249 264 264 248
341 296 268 257 137 84 25 92 107 84 55 28 345 320 332 318 298 281 268 274 285 285 275 262 256 261 268 262 236 245 258 259 262 258 253 258 267 260
290 277 294 350 352 102 60 44 75 97 71 304 305 314 311 309 308 303 298 308 308 293 280 269 269 275 287 292 281 240 246 266 272 270 261 254 259 261
242 254 242 215 281 28 37 37 35 48 263 294 325 321 316 311 306 297 297 315 311 302 290 274 262 259 268 279 280 268 238 233 244 253 260 265 264 264
245 223 214 56 51 55 41 143 215 249 260 294 276 278 293 292 289 294 298 294 278 273 278 273 250 240 242 260 266 264 249 228 225 226 239 253 267 271
294 358 54 88 203 239 230 217 216 214 221 240 239 255 282 287 293 296 295 286 275 279 288 279 259 252 253 259 266 269 265 252 240 243 245 236 229 243
70 330 263 233 215 227 237 225 236 272 261 269 294 289 291 295 293 286 282 284 285 290 295 292 290 276 272 273 276 277 275 267 259 245 248 243 238 244